Time,TemperatureF,DewpointF,PressureIn,WindDirection,WindDirectionDegrees,WindSpeedMPH,WindSpeedGustMPH,Humidity,HourlyPrecipIn,Conditions,Clouds,dailyrainin,SoftwareType,DateUTC
2013-04-28 00:00:00,59.0,46.0,29.85,SSE,158,8.5,8.5,62,0.00,,,0.00,WUHU216HW,2013-04-28 05:00:00,
2013-04-28 00:05:00,59.0,46.0,29.85,SSE,158,8.5,8.5,62,0.00,,,0.00,WUHU216HW,2013-04-28 05:05:00,
2013-04-28 00:10:00,59.0,46.0,29.85,SSE,158,8.5,8.5,62,0.00,,,0.00,WUHU216HW,2013-04-28 05:10:00,
2013-04-28 00:30:00,59.4,46.8,29.85,South,180,6.5,6.5,63,0.00,,,0.00,WUHU216HW,2013-04-28 05:30:00,
2013-04-28 00:35:00,59.4,46.8,29.85,SSE,158,5.4,6.5,63,0.00,,,0.00,WUHU216HW,2013-04-28 05:35:00,
2013-04-28 00:36:00,59.4,46.8,29.85,SSE,158,5.4,6.5,63,0.00,,,0.00,WUHU216HW,2013-04-28 05:36:00,
2013-04-28 00:40:00,59.4,46.8,29.85,SSE,158,5.4,5.4,63,0.00,,,0.00,WUHU216HW,2013-04-28 05:40:00,
2013-04-28 01:00:00,58.7,46.9,29.84,SSE,158,5.4,5.4,65,0.00,,,0.00,WUHU216HW,2013-04-28 06:00:00,
2013-04-28 01:05:00,58.7,46.9,29.84,SSE,158,8.1,8.1,65,0.00,,,0.00,WUHU216HW,2013-04-28 06:05:00,
2013-04-28 01:10:00,58.7,46.9,29.84,SSE,158,8.1,8.1,65,0.00,,,0.00,WUHU216HW,2013-04-28 06:10:00,
2013-04-28 01:30:00,57.6,46.3,29.85,SSE,158,5.4,5.4,66,0.00,,,0.00,WUHU216HW,2013-04-28 06:30:00,
2013-04-28 01:31:00,57.6,46.7,29.84,SSE,158,6.7,6.7,67,0.00,,,0.00,WUHU216HW,2013-04-28 06:31:00,
2013-04-28 01:35:00,57.6,46.7,29.84,SSE,158,6.7,6.7,67,0.00,,,0.00,WUHU216HW,2013-04-28 06:35:00,
2013-04-28 01:36:00,57.6,46.7,29.84,SSE,158,6.7,6.7,67,0.00,,,0.00,WUHU216HW,2013-04-28 06:36:00,
2013-04-28 01:40:00,57.6,46.7,29.84,SSE,158,6.7,6.7,67,0.00,,,0.00,WUHU216HW,2013-04-28 06:40:00,
2013-04-28 02:00:00,56.5,46.1,29.84,South,180,4.5,4.5,68,0.00,,,0.00,WUHU216HW,2013-04-28 07:00:00,
2013-04-28 02:05:00,56.5,46.1,29.84,SE,135,3.4,4.5,68,0.00,,,0.00,WUHU216HW,2013-04-28 07:05:00,
2013-04-28 02:30:00,55.8,45.8,29.84,SSE,158,4.9,4.9,69,0.00,,,0.00,WUHU216HW,2013-04-28 07:30:00,
2013-04-28 02:35:00,55.8,45.8,29.84,SSE,158,4.9,4.9,69,0.00,,,0.00,WUHU216HW,2013-04-28 07:35:00,
2013-04-28 02:36:00,55.8,45.8,29.84,SSE,158,4.9,4.9,69,0.00,,,0.00,WUHU216HW,2013-04-28 07:36:00,
2013-04-28 02:40:00,55.8,45.8,29.84,SSE,158,4.9,4.9,69,0.00,,,0.00,WUHU216HW,2013-04-28 07:40:00,
2013-04-28 03:00:00,54.9,45.4,29.83,SSE,158,6.0,6.0,70,0.00,,,0.00,WUHU216HW,2013-04-28 08:00:00,
2013-04-28 03:05:00,54.9,45.4,29.83,SSE,158,4.3,6.0,70,0.00,,,0.00,WUHU216HW,2013-04-28 08:05:00,
2013-04-28 03:10:00,54.9,45.4,29.83,SSE,158,4.3,4.3,70,0.00,,,0.00,WUHU216HW,2013-04-28 08:10:00,
2013-04-28 03:30:00,54.7,45.2,29.83,SSE,158,4.3,4.3,70,0.00,,,0.00,WUHU216HW,2013-04-28 08:30:00,
2013-04-28 03:31:00,54.7,45.2,29.83,SSW,203,5.1,5.1,70,0.00,,,0.00,WUHU216HW,2013-04-28 08:31:00,
2013-04-28 03:35:00,54.7,45.2,29.83,SSW,203,5.1,5.1,70,0.00,,,0.00,WUHU216HW,2013-04-28 08:35:00,
2013-04-28 03:36:00,54.7,45.2,29.83,SSW,203,5.1,5.1,70,0.00,,,0.00,WUHU216HW,2013-04-28 08:36:00,
2013-04-28 03:40:00,54.7,45.2,29.83,SSW,203,5.1,5.1,70,0.00,,,0.00,WUHU216HW,2013-04-28 08:40:00,
2013-04-28 04:00:00,54.7,45.2,29.82,SSE,158,5.1,5.1,70,0.00,,,0.00,WUHU216HW,2013-04-28 09:00:00,
2013-04-28 04:05:00,54.7,45.2,29.82,ESE,113,5.8,5.8,70,0.00,,,0.00,WUHU216HW,2013-04-28 09:05:00,
2013-04-28 04:30:00,54.2,45.0,29.82,SSE,158,4.7,4.7,71,0.00,,,0.00,WUHU216HW,2013-04-28 09:30:00,
2013-04-28 04:35:00,54.2,45.0,29.82,SSW,203,4.7,4.7,71,0.00,,,0.00,WUHU216HW,2013-04-28 09:35:00,
2013-04-28 04:36:00,54.2,45.0,29.82,SSW,203,4.7,4.7,71,0.00,,,0.00,WUHU216HW,2013-04-28 09:36:00,
2013-04-28 04:40:00,54.2,45.0,29.82,SSW,203,4.7,4.7,71,0.00,,,0.00,WUHU216HW,2013-04-28 09:40:00,
2013-04-28 05:00:00,53.3,44.8,29.82,SSE,158,4.0,4.0,73,0.00,,,0.00,WUHU216HW,2013-04-28 10:00:00,
2013-04-28 05:05:00,53.3,44.1,29.82,South,180,4.7,4.7,71,0.00,,,0.00,WUHU216HW,2013-04-28 10:05:00,
2013-04-28 05:06:00,53.3,44.1,29.82,South,180,4.7,4.7,71,0.00,,,0.00,WUHU216HW,2013-04-28 10:06:00,
2013-04-28 05:30:00,52.7,44.0,29.82,SSE,158,4.5,4.5,72,0.00,,,0.00,WUHU216HW,2013-04-28 10:30:00,
2013-04-28 05:31:00,52.7,44.0,29.82,SSE,158,4.5,4.5,72,0.00,,,0.00,WUHU216HW,2013-04-28 10:31:00,
2013-04-28 05:35:00,52.7,44.0,29.82,SSE,158,4.5,4.5,72,0.00,,,0.00,WUHU216HW,2013-04-28 10:35:00,
2013-04-28 05:36:00,52.7,44.0,29.82,SSE,158,4.5,4.5,72,0.00,,,0.00,WUHU216HW,2013-04-28 10:36:00,
2013-04-28 05:40:00,52.7,44.0,29.82,SSE,158,4.5,4.5,72,0.00,,,0.00,WUHU216HW,2013-04-28 10:40:00,
2013-04-28 06:00:00,52.2,43.8,29.81,SSE,158,7.8,7.8,73,0.00,,,0.00,WUHU216HW,2013-04-28 11:00:00,
2013-04-28 06:05:00,52.4,44.4,29.81,SSE,158,7.2,7.8,74,0.00,,,0.00,WUHU216HW,2013-04-28 11:05:00,
2013-04-28 06:06:00,52.4,44.4,29.81,SSE,158,7.2,7.8,74,0.00,,,0.00,WUHU216HW,2013-04-28 11:06:00,
2013-04-28 06:30:00,51.7,43.7,29.80,SSE,158,8.5,8.5,74,0.00,,,0.00,WUHU216HW,2013-04-28 11:30:00,
2013-04-28 06:31:00,51.7,44.0,29.80,SE,133,8.2,8.5,75,0.00,,,0.00,WUHU216HW,2013-04-28 11:31:00,
2013-04-28 06:35:00,51.7,44.0,29.80,ENE,68,7.6,8.5,75,0.00,,,0.00,WUHU216HW,2013-04-28 11:35:00,
2013-04-28 06:36:00,51.7,44.0,29.80,ENE,68,7.6,8.5,75,0.00,,,0.00,WUHU216HW,2013-04-28 11:36:00,
2013-04-28 06:40:00,51.7,44.0,29.80,ENE,68,7.6,7.6,75,0.00,,,0.00,WUHU216HW,2013-04-28 11:40:00,
2013-04-28 07:00:00,52.9,44.6,29.79,SSE,158,6.9,6.9,73,0.00,,,0.00,WUHU216HW,2013-04-28 12:00:00,
2013-04-28 07:05:00,52.9,44.6,29.79,SSE,158,6.5,8.5,73,0.00,,,0.00,WUHU216HW,2013-04-28 12:05:00,
2013-04-28 07:10:00,52.9,44.6,29.79,SSE,158,6.5,6.5,73,0.00,,,0.00,WUHU216HW,2013-04-28 12:10:00,
2013-04-28 07:30:00,54.7,46.3,29.78,ESE,113,6.5,6.5,73,0.00,,,0.00,WUHU216HW,2013-04-28 12:30:00,
2013-04-28 07:35:00,54.5,46.1,29.78,SSE,158,6.9,6.9,73,0.00,,,0.00,WUHU216HW,2013-04-28 12:35:00,
2013-04-28 07:36:00,54.5,46.1,29.78,SSE,158,6.9,6.9,73,0.00,,,0.00,WUHU216HW,2013-04-28 12:36:00,
2013-04-28 08:00:00,56.7,46.6,29.79,East,90,6.3,6.3,69,0.00,,,0.00,WUHU216HW,2013-04-28 13:00:00,
2013-04-28 08:05:00,56.9,46.8,29.79,SE,135,5.1,6.3,69,0.00,,,0.00,WUHU216HW,2013-04-28 13:05:00,
2013-04-28 08:06:00,56.9,46.8,29.79,SE,135,5.1,6.3,69,0.00,,,0.00,WUHU216HW,2013-04-28 13:06:00,
2013-04-28 08:10:00,56.9,46.8,29.79,SE,135,5.1,6.3,69,0.00,,,0.00,WUHU216HW,2013-04-28 13:10:00,
2013-04-28 08:30:00,59.2,47.4,29.78,SE,135,8.7,8.7,65,0.00,,,0.00,WUHU216HW,2013-04-28 13:30:00,
2013-04-28 08:31:00,59.2,47.4,29.78,SE,135,8.7,8.7,65,0.00,,,0.00,WUHU216HW,2013-04-28 13:31:00,
2013-04-28 08:35:00,59.2,47.4,29.78,SE,135,8.7,8.7,65,0.00,,,0.00,WUHU216HW,2013-04-28 13:35:00,
2013-04-28 08:36:00,59.2,47.4,29.78,SE,135,8.7,8.7,65,0.00,,,0.00,WUHU216HW,2013-04-28 13:36:00,
2013-04-28 08:40:00,59.2,47.4,29.78,SE,135,8.7,8.7,65,0.00,,,0.00,WUHU216HW,2013-04-28 13:40:00,
2013-04-28 09:00:00,60.8,48.3,29.77,SSE,158,9.2,9.2,63,0.00,,,0.00,WUHU216HW,2013-04-28 14:00:00,
2013-04-28 09:05:00,61.0,48.4,29.77,SE,135,11.2,11.2,63,0.00,,,0.00,WUHU216HW,2013-04-28 14:05:00,
2013-04-28 09:10:00,61.0,48.4,29.77,SE,135,11.2,11.2,63,0.00,,,0.00,WUHU216HW,2013-04-28 14:10:00,
2013-04-28 09:30:00,63.7,47.6,29.76,SE,135,12.1,12.1,56,0.00,,,0.00,WUHU216HW,2013-04-28 14:30:00,
2013-04-28 09:35:00,63.7,47.6,29.76,SSE,158,10.3,12.1,56,0.00,,,0.00,WUHU216HW,2013-04-28 14:35:00,
2013-04-28 09:36:00,63.7,47.6,29.76,SSE,158,10.3,12.1,56,0.00,,,0.00,WUHU216HW,2013-04-28 14:36:00,
2013-04-28 10:00:00,65.9,48.2,29.74,SE,135,7.4,7.4,53,0.00,,,0.00,WUHU216HW,2013-04-28 15:00:00,
2013-04-28 10:05:00,65.9,48.2,29.74,SSE,158,9.8,9.8,53,0.00,,,0.00,WUHU216HW,2013-04-28 15:05:00,
2013-04-28 10:10:00,65.9,48.2,29.74,SSE,158,9.8,9.8,53,0.00,,,0.00,WUHU216HW,2013-04-28 15:10:00,
2013-04-28 10:30:00,67.3,48.2,29.73,SSE,158,13.4,13.4,50,0.00,,,0.00,WUHU216HW,2013-04-28 15:30:00,
2013-04-28 10:31:00,67.3,48.2,29.73,SSE,151,12.3,13.4,50,0.00,,,0.00,WUHU216HW,2013-04-28 15:31:00,
2013-04-28 10:35:00,67.3,48.2,29.73,SE,135,10.1,13.4,50,0.00,,,0.00,WUHU216HW,2013-04-28 15:35:00,
2013-04-28 10:36:00,67.3,48.2,29.73,SE,135,10.1,13.4,50,0.00,,,0.00,WUHU216HW,2013-04-28 15:36:00,
2013-04-28 10:40:00,67.3,48.2,29.73,SE,135,10.1,10.1,50,0.00,,,0.00,WUHU216HW,2013-04-28 15:40:00,
2013-04-28 11:00:00,70.2,48.3,29.72,SSE,158,18.6,18.6,46,0.00,,,0.00,WUHU216HW,2013-04-28 16:00:00,
2013-04-28 11:05:00,69.8,48.1,29.72,SE,135,13.4,18.6,46,0.00,,,0.00,WUHU216HW,2013-04-28 16:05:00,
2013-04-28 11:30:00,71.6,47.9,29.72,SSE,158,10.5,10.5,43,0.00,,,0.00,WUHU216HW,2013-04-28 16:30:00,
2013-04-28 11:31:00,71.6,47.9,29.72,SSE,158,10.5,10.5,43,0.00,,,0.00,WUHU216HW,2013-04-28 16:31:00,
2013-04-28 11:35:00,71.6,47.9,29.72,SSE,158,10.5,10.5,43,0.00,,,0.00,WUHU216HW,2013-04-28 16:35:00,
2013-04-28 11:36:00,71.6,47.9,29.72,SSE,158,10.5,10.5,43,0.00,,,0.00,WUHU216HW,2013-04-28 16:36:00,
2013-04-28 12:00:00,71.3,47.0,29.72,SE,135,11.4,11.4,42,0.00,,,0.00,WUHU216HW,2013-04-28 17:00:00,
2013-04-28 12:05:00,71.3,47.0,29.72,ESE,113,8.1,11.4,42,0.00,,,0.00,WUHU216HW,2013-04-28 17:05:00,
2013-04-28 12:30:00,72.2,47.2,29.70,South,180,13.2,13.2,41,0.00,,,0.00,WUHU216HW,2013-04-28 17:30:00,
2013-04-28 12:31:00,72.2,47.2,29.70,South,176,11.1,13.2,41,0.00,,,0.00,WUHU216HW,2013-04-28 17:31:00,
2013-04-28 12:35:00,72.2,47.2,29.70,SSW,203,7.4,13.2,41,0.00,,,0.00,WUHU216HW,2013-04-28 17:35:00,
2013-04-28 12:36:00,72.2,47.2,29.70,SSW,203,7.4,13.2,41,0.00,,,0.00,WUHU216HW,2013-04-28 17:36:00,
2013-04-28 13:00:00,74.2,47.6,29.70,SSE,158,9.2,9.2,39,0.00,,,0.00,WUHU216HW,2013-04-28 18:00:00,
2013-04-28 13:05:00,74.2,47.6,29.70,ESE,113,11.9,11.9,39,0.00,,,0.00,WUHU216HW,2013-04-28 18:05:00,
2013-04-28 13:10:00,74.2,47.6,29.70,ESE,113,11.9,11.9,39,0.00,,,0.00,WUHU216HW,2013-04-28 18:10:00,
2013-04-28 13:30:00,74.7,47.4,29.70,SE,135,6.3,6.3,38,0.00,,,0.00,WUHU216HW,2013-04-28 18:30:00,
2013-04-28 13:35:00,74.9,47.5,29.70,SSE,158,5.4,6.3,38,0.00,,,0.00,WUHU216HW,2013-04-28 18:35:00,
2013-04-28 13:36:00,74.9,47.5,29.70,SSE,158,5.4,6.3,38,0.00,,,0.00,WUHU216HW,2013-04-28 18:36:00,
2013-04-28 14:00:00,74.3,47.0,29.69,SSE,158,5.6,5.6,38,0.00,,,0.00,WUHU216HW,2013-04-28 19:00:00,
2013-04-28 14:05:00,74.3,47.0,29.69,SSE,158,5.6,5.6,38,0.00,,,0.00,WUHU216HW,2013-04-28 19:05:00,
2013-04-28 14:06:00,74.3,47.0,29.69,SSE,158,5.6,5.6,38,0.00,,,0.00,WUHU216HW,2013-04-28 19:06:00,
2013-04-28 14:10:00,74.3,47.0,29.69,SSE,158,5.6,5.6,38,0.00,,,0.00,WUHU216HW,2013-04-28 19:10:00,
2013-04-28 14:30:00,76.7,46.8,29.68,SW,225,9.4,9.4,35,0.00,,,0.00,WUHU216HW,2013-04-28 19:30:00,
2013-04-28 14:31:00,76.7,46.8,29.68,South,180,10.5,10.5,35,0.00,,,0.00,WUHU216HW,2013-04-28 19:31:00,
2013-04-28 14:35:00,76.7,46.8,29.68,South,180,10.5,10.5,35,0.00,,,0.00,WUHU216HW,2013-04-28 19:35:00,
2013-04-28 14:36:00,76.7,46.8,29.68,South,180,10.5,10.5,35,0.00,,,0.00,WUHU216HW,2013-04-28 19:36:00,
2013-04-28 15:00:00,77.8,47.8,29.68,SSW,203,6.9,6.9,35,0.00,,,0.00,WUHU216HW,2013-04-28 20:00:00,
2013-04-28 15:05:00,77.8,47.8,29.68,SSW,203,6.7,6.9,35,0.00,,,0.00,WUHU216HW,2013-04-28 20:05:00,
2013-04-28 15:06:00,77.8,47.8,29.68,SSW,203,6.7,6.9,35,0.00,,,0.00,WUHU216HW,2013-04-28 20:06:00,
2013-04-28 15:10:00,77.8,47.8,29.68,SSW,203,6.7,6.7,35,0.00,,,0.00,WUHU216HW,2013-04-28 20:10:00,
2013-04-28 15:30:00,77.0,47.2,29.67,SSW,203,13.2,13.2,35,0.00,,,0.00,WUHU216HW,2013-04-28 20:30:00,
2013-04-28 15:35:00,77.0,47.2,29.67,SSE,158,9.4,13.2,35,0.00,,,0.00,WUHU216HW,2013-04-28 20:35:00,
2013-04-28 15:36:00,77.0,47.2,29.67,SSE,158,9.4,13.2,35,0.00,,,0.00,WUHU216HW,2013-04-28 20:36:00,
2013-04-28 15:40:00,77.0,47.2,29.67,SSE,158,9.4,9.4,35,0.00,,,0.00,WUHU216HW,2013-04-28 20:40:00,
2013-04-28 16:00:00,77.0,47.2,29.67,SE,135,7.4,7.4,35,0.00,,,0.00,WUHU216HW,2013-04-28 21:00:00,
2013-04-28 16:05:00,77.2,47.4,29.67,South,180,6.3,7.4,35,0.00,,,0.00,WUHU216HW,2013-04-28 21:05:00,
2013-04-28 16:10:00,77.2,47.4,29.67,South,180,6.3,6.3,35,0.00,,,0.00,WUHU216HW,2013-04-28 21:10:00,
2013-04-28 16:30:00,77.8,47.8,29.66,South,180,3.1,3.1,35,0.00,,,0.00,WUHU216HW,2013-04-28 21:30:00,
2013-04-28 16:31:00,77.8,47.8,29.66,South,180,3.1,3.1,35,0.00,,,0.00,WUHU216HW,2013-04-28 21:31:00,
2013-04-28 16:35:00,77.8,47.8,29.66,South,180,3.1,3.1,35,0.00,,,0.00,WUHU216HW,2013-04-28 21:35:00,
2013-04-28 16:36:00,77.8,47.8,29.66,South,180,3.1,3.1,35,0.00,,,0.00,WUHU216HW,2013-04-28 21:36:00,
2013-04-28 17:00:00,78.1,48.1,29.66,SSW,203,3.4,3.4,35,0.00,,,0.00,WUHU216HW,2013-04-28 22:00:00,
2013-04-28 17:05:00,78.1,48.1,29.66,SW,225,3.8,3.8,35,0.00,,,0.00,WUHU216HW,2013-04-28 22:05:00,
2013-04-28 17:06:00,78.1,48.1,29.66,SW,225,3.8,3.8,35,0.00,,,0.00,WUHU216HW,2013-04-28 22:06:00,
2013-04-28 17:30:00,78.3,48.3,29.65,SE,135,2.2,2.2,35,0.00,,,0.00,WUHU216HW,2013-04-28 22:30:00,
2013-04-28 17:31:00,78.3,47.4,29.65,SE,131,1.8,2.2,34,0.00,,,0.00,WUHU216HW,2013-04-28 22:31:00,
2013-04-28 17:35:00,78.3,47.4,29.65,ESE,113,1.1,2.2,34,0.00,,,0.00,WUHU216HW,2013-04-28 22:35:00,
2013-04-28 17:36:00,78.3,47.4,29.65,ESE,113,1.1,2.2,34,0.00,,,0.00,WUHU216HW,2013-04-28 22:36:00,
2013-04-28 17:40:00,78.3,47.4,29.65,ESE,113,1.1,2.2,34,0.00,,,0.00,WUHU216HW,2013-04-28 22:40:00,
2013-04-28 18:00:00,70.9,52.4,29.65,SSE,158,4.3,4.3,52,0.01,,,0.00,WUHU216HW,2013-04-28 23:00:00,
2013-04-28 18:05:00,70.9,52.9,29.65,SSE,158,2.7,4.3,53,0.01,,,0.01,WUHU216HW,2013-04-28 23:05:00,
2013-04-28 18:30:00,72.2,54.0,29.65,SE,135,1.1,1.1,53,0.01,,,0.01,WUHU216HW,2013-04-28 23:30:00,
2013-04-28 18:35:00,72.2,53.6,29.66,ESE,113,1.1,1.1,52,0.01,,,0.01,WUHU216HW,2013-04-28 23:35:00,
2013-04-28 18:40:00,72.2,53.6,29.66,ESE,113,1.1,1.1,52,0.01,,,0.01,WUHU216HW,2013-04-28 23:40:00,
2013-04-28 19:00:00,71.6,48.4,29.68,NNW,338,7.6,7.6,44,0.00,,,0.01,WUHU216HW,2013-04-29 00:00:00,
2013-04-28 19:05:00,71.6,48.4,29.68,NNW,338,13.4,13.4,44,0.00,,,0.01,WUHU216HW,2013-04-29 00:05:00,
2013-04-28 19:30:00,70.6,45.7,29.69,NNW,338,4.0,4.0,41,0.00,,,0.01,WUHU216HW,2013-04-29 00:30:00,
2013-04-28 19:31:00,70.6,45.7,29.68,NNW,338,4.0,4.0,41,0.00,,,0.01,WUHU216HW,2013-04-29 00:31:00,
2013-04-28 19:35:00,70.6,45.7,29.68,NNW,338,4.0,4.0,41,0.00,,,0.01,WUHU216HW,2013-04-29 00:35:00,
2013-04-28 19:36:00,70.6,45.7,29.68,NNW,338,4.0,4.0,41,0.00,,,0.01,WUHU216HW,2013-04-29 00:36:00,
2013-04-28 19:40:00,70.6,45.7,29.68,NNW,338,4.0,4.0,41,0.00,,,0.01,WUHU216HW,2013-04-29 00:40:00,
2013-04-28 20:00:00,68.8,44.6,29.69,NW,315,5.8,5.8,42,0.00,,,0.01,WUHU216HW,2013-04-29 01:00:00,
2013-04-28 20:05:00,68.8,44.6,29.69,NNW,338,4.7,5.8,42,0.00,,,0.01,WUHU216HW,2013-04-29 01:05:00,
2013-04-28 20:06:00,68.8,44.6,29.69,NNW,338,4.7,5.8,42,0.00,,,0.01,WUHU216HW,2013-04-29 01:06:00,
2013-04-28 20:10:00,68.8,44.6,29.69,NNW,338,4.7,4.7,42,0.00,,,0.01,WUHU216HW,2013-04-29 01:10:00,
2013-04-28 20:30:00,67.0,46.0,29.70,North,0,6.3,6.3,47,0.00,,,0.01,WUHU216HW,2013-04-29 01:30:00,
2013-04-28 20:35:00,67.0,46.0,29.70,NNE,23,4.7,6.3,47,0.00,,,0.01,WUHU216HW,2013-04-29 01:35:00,
2013-04-28 20:36:00,67.0,46.0,29.70,NNE,23,4.7,6.3,47,0.00,,,0.01,WUHU216HW,2013-04-29 01:36:00,
2013-04-28 20:40:00,67.0,46.0,29.70,NNE,23,4.7,6.3,47,0.00,,,0.01,WUHU216HW,2013-04-29 01:40:00,
2013-04-28 21:00:00,65.5,45.8,29.70,NE,45,8.7,8.7,49,0.00,,,0.01,WUHU216HW,2013-04-29 02:00:00,
2013-04-28 21:05:00,65.5,45.8,29.70,NE,45,9.4,9.4,49,0.00,,,0.01,WUHU216HW,2013-04-29 02:05:00,
2013-04-28 21:06:00,65.5,45.8,29.70,NE,45,9.4,9.4,49,0.00,,,0.01,WUHU216HW,2013-04-29 02:06:00,
2013-04-28 21:10:00,65.5,45.8,29.70,NE,45,9.4,9.4,49,0.00,,,0.01,WUHU216HW,2013-04-29 02:10:00,
2013-04-28 21:30:00,64.1,46.5,29.72,SW,225,0.4,0.4,53,0.00,,,0.01,WUHU216HW,2013-04-29 02:30:00,
2013-04-28 21:35:00,64.1,46.0,29.72,SW,225,0.4,0.4,52,0.00,,,0.01,WUHU216HW,2013-04-29 02:35:00,
2013-04-28 21:36:00,64.1,46.0,29.72,SW,225,0.4,0.4,52,0.00,,,0.01,WUHU216HW,2013-04-29 02:36:00,
2013-04-28 22:00:00,63.4,46.8,29.73,SE,135,2.9,2.9,55,0.00,,,0.01,WUHU216HW,2013-04-29 03:00:00,
2013-04-28 22:05:00,63.4,46.8,29.73,SE,135,2.5,2.9,55,0.00,,,0.01,WUHU216HW,2013-04-29 03:05:00,
2013-04-28 22:06:00,63.4,46.8,29.73,SE,135,2.5,2.9,55,0.00,,,0.01,WUHU216HW,2013-04-29 03:06:00,
2013-04-28 22:10:00,63.4,46.8,29.73,SE,135,2.5,2.9,55,0.00,,,0.01,WUHU216HW,2013-04-29 03:10:00,
2013-04-28 22:30:00,61.6,47.2,29.72,WNW,293,4.3,4.3,59,0.00,,,0.01,WUHU216HW,2013-04-29 03:30:00,
2013-04-28 22:31:00,61.6,47.2,29.72,WNW,293,4.3,4.3,59,0.00,,,0.01,WUHU216HW,2013-04-29 03:31:00,
2013-04-28 22:35:00,61.6,47.2,29.72,WNW,293,4.3,4.3,59,0.00,,,0.01,WUHU216HW,2013-04-29 03:35:00,
2013-04-28 22:36:00,61.6,47.2,29.72,WNW,293,4.3,4.3,59,0.00,,,0.01,WUHU216HW,2013-04-29 03:36:00,
2013-04-28 22:40:00,61.6,47.2,29.72,WNW,293,4.3,4.3,59,0.00,,,0.01,WUHU216HW,2013-04-29 03:40:00,
2013-04-28 23:00:00,61.2,47.4,29.72,ESE,113,1.1,1.1,60,0.00,,,0.01,WUHU216HW,2013-04-29 04:00:00,
2013-04-28 23:01:00,61.0,47.2,29.72,ENE,77,0.6,1.1,60,0.00,,,0.01,WUHU216HW,2013-04-29 04:01:00,
2013-04-28 23:06:00,61.0,47.2,29.72,NE,45,0.4,1.1,60,0.00,,,0.01,WUHU216HW,2013-04-29 04:06:00,
2013-04-28 23:30:00,60.8,46.5,29.74,WNW,293,4.3,4.3,59,0.00,,,0.01,WUHU216HW,2013-04-29 04:30:00,
2013-04-28 23:31:00,60.8,46.5,29.74,West,270,4.3,4.3,59,0.00,,,0.01,WUHU216HW,2013-04-29 04:31:00,
2013-04-28 23:35:00,60.8,46.5,29.74,West,270,4.3,4.3,59,0.00,,,0.01,WUHU216HW,2013-04-29 04:35:00,
2013-04-28 23:36:00,60.8,46.5,29.74,West,270,4.3,4.3,59,0.00,,,0.01,WUHU216HW,2013-04-29 04:36:00,